Location: Jalan Sepang
(2.8072°N, 101.8021°E)
Time: 04:54:20
(UTC+00:00)

Ariane H10+ - Pass Details

Date: 15 May 2026
Orbit: 317 x 20607 km, 6.4° (Epoch: 7 June)

Event Time Altitude Azimuth Distance (km) Brightness Sun altitude
Rises 12:35:20 0° 246° (WSW) 2,476 5.8 -19.3°
Reaches altitude 10° 12:38:00 10° 221° (SW) 1,245 3.9 -19.9°
Enters shadow 12:38:23 12° 213° (SSW) 1,111 3.5 -20.0°
